EW5053 Weather Reports


Display with metric or nautical units.
time (UTC)temp
F
wind
direction
speed
MPH
gust
MPH
rain 1hr
in
rain 24hr
in
rain mn
in
humidity
%
barometer
mb
20260903033504 81 0 0.0 0.0 0.00 0.00 0.00 70 1016.7
20260903033004 81 0 0.0 0.0 0.00 0.00 0.00 69 1016.8
20260903032504 81 37 0.0 1.0 0.00 0.00 0.00 69 1016.9
20260903032004 82 37 0.0 1.0 0.00 0.00 0.00 66 1016.9
20260903031505 82 0 0.0 0.0 0.00 0.00 0.00 66 1016.9
20260903030504 82 278 0.0 1.0 0.00 0.00 0.00 65 1017.0
20260903030005 82 261 0.0 1.0 0.00 0.00 0.00 65 1017.0
20260903025503 82 219 0.0 1.0 0.00 0.00 0.00 65 1017.1
20260903025004 83 219 0.0 1.0 0.00 0.00 0.00 65 1017.0
20260903024504 83 0 0.0 0.0 0.00 0.00 0.00 65 1017.2
20260903024004 83 0 0.0 0.0 0.00 0.00 0.00 64 1017.1
20260903023503 83 0 0.0 0.0 0.00 0.00 0.00 64 1017.2
20260903023004 83 261 0.0 1.0 0.00 0.00 0.00 64 1017.2
20260903022504 83 261 0.0 1.0 0.00 0.00 0.00 64 1017.0
20260903022004 84 261 0.0 1.0 0.00 0.00 0.00 64 1016.9
20260903021503 84 0 0.0 0.0 0.00 0.00 0.00 64 1017.2
20260903021005 84 0 0.0 0.0 0.00 0.00 0.00 63 1017.3
20260903020005 85 261 0.0 1.0 0.00 0.00 0.00 63 1017.0
20260903015503 85 261 0.0 1.0 0.00 0.00 0.00 62 1017.2
20260903015004 85 0 0.0 0.0 0.00 0.00 0.00 62 1016.9
20260903014506 85 37 0.0 1.0 0.00 0.00 0.00 62 1017.1
20260903014003 85 37 0.0 1.0 0.00 0.00 0.00 61 1017.1
20260903013504 86 0 0.0 0.0 0.00 0.00 0.00 61 1016.9
20260903012504 86 15 0.0 1.0 0.00 0.00 0.00 60 1016.9
20260903011504 87 351 0.0 1.0 0.00 0.00 0.00 59 1016.9
20260903011003 87 351 0.0 1.0 0.00 0.00 0.00 59 1016.8
20260903010505 88 335 0.0 1.0 0.00 0.00 0.00 58 1016.7
20260903010004 88 253 0.0 2.0 0.00 0.00 0.00 58 1016.6
20260903005504 88 255 0.0 2.0 0.00 0.00 0.00 57 1016.6
20260903005003 88 256 1.0 2.0 0.00 0.00 0.00 57 1016.7
20260903004005 89 248 1.0 3.0 0.00 0.00 0.00 57 1016.5
20260903003504 89 253 1.0 3.0 0.00 0.00 0.00 56 1016.2
20260903002504 90 245 1.0 2.0 0.00 0.00 0.00 56 1016.5
20260903002004 90 236 0.0 2.0 0.00 0.00 0.00 56 1016.4
20260903001504 90 226 1.0 3.0 0.00 0.00 0.00 56 1016.4
20260903000503 91 215 1.0 3.0 0.00 0.00 0.00 54 1016.4
20260903000004 91 214 2.0 3.0 0.00 0.00 0.00 54 1016.5
20260902235504 91 216 2.0 3.0 0.00 0.00 0.00 54 1016.4
20260902235004 92 221 1.0 3.0 0.00 0.00 0.00 54 1016.4
20260902234504 92 225 2.0 3.0 0.00 0.00 0.00 54 1016.5
20260902234003 92 237 1.0 3.0 0.00 0.00 0.00 54 1016.5
20260902233504 92 232 2.0 3.0 0.00 0.00 0.00 54 1016.5
20260902233004 92 227 1.0 3.0 0.00 0.00 0.00 54 1016.6
20260902232506 92 242 2.0 5.0 0.00 0.00 0.00 54 1016.6
20260902232004 92 234 2.0 6.0 0.00 0.00 0.00 54 1016.6
20260902231504 92 234 1.0 6.0 0.00 0.00 0.00 54 1016.5
20260902230503 92 252 2.0 5.0 0.00 0.00 0.00 54 1016.7
20260902230003 92 235 2.0 5.0 0.00 0.00 0.00 55 1016.7
20260902225003 94 246 3.0 5.0 0.00 0.00 0.00 54 1016.7
20260902224004 94 258 2.0 5.0 0.00 0.00 0.00 54 1016.7
20260902223504 94 231 2.0 6.0 0.00 0.00 0.00 54 1016.7
20260902223005 94 231 4.0 7.0 0.00 0.00 0.00 55 1016.6
20260902222004 94 241 5.0 7.0 0.00 0.00 0.00 55 1016.7
20260902221504 94 238 5.0 7.0 0.00 0.00 0.00 54 1016.6
20260902221004 94 238 3.0 8.0 0.00 0.00 0.00 54 1016.8
20260902220504 94 235 5.0 8.0 0.00 0.00 0.00 54 1016.8
20260902220004 94 235 3.0 6.0 0.00 0.00 0.00 55 1016.8
20260902215504 94 249 4.0 8.0 0.00 0.00 0.00 55 1016.7
20260902215004 94 255 3.0 8.0 0.00 0.00 0.00 54 1016.8
20260902214504 94 245 3.0 8.0 0.00 0.00 0.00 54 1017.0
20260902213504 94 248 5.0 7.0 0.00 0.00 0.00 54 1016.8
20260902212504 94 311 5.0 8.0 0.00 0.00 0.00 51 1016.9
20260902212004 94 313 7.0 8.0 0.00 0.00 0.00 52 1016.8
20260902211004 94 278 7.0 8.0 0.00 0.00 0.00 54 1016.9
20260902210504 94 276 5.0 9.0 0.00 0.00 0.00 55 1017.0
20260902210004 94 260 5.0 9.0 0.00 0.00 0.00 54 1016.9
20260902205508 94 273 7.0 9.0 0.00 0.00 0.00 54 1017.1
20260902205004 94 291 5.0 8.0 0.00 0.00 0.00 54 1017.0
20260902204504 94 310 3.0 8.0 0.00 0.00 0.00 54 1017.1
20260902204004 94 307 5.0 8.0 0.00 0.00 0.00 53 1016.9
20260902203004 94 311 5.0 7.0 0.00 0.00 0.00 54 1017.2
20260902202504 93 293 5.0 7.0 0.00 0.00 0.00 54 1017.3
20260902202003 93 269 4.0 9.0 0.00 0.00 0.00 54 1017.1
20260902201504 93 292 5.0 9.0 0.00 0.00 0.00 54 1017.2
20260902201005 93 323 6.0 9.0 0.00 0.00 0.00 53 1017.1
20260902200004 93 270 5.0 11.0 0.00 0.00 0.00 54 1017.5
20260902195505 93 251 5.0 9.0 0.00 0.00 0.00 55 1017.4
20260902195004 93 280 7.0 9.0 0.00 0.00 0.00 55 1017.5
20260902194004 91 276 4.0 9.0 0.00 0.00 0.00 54 1017.5
20260902193504 91 257 5.0 8.0 0.00 0.00 0.00 54 1017.6
20260902193004 91 275 6.0 8.0 0.00 0.00 0.00 55 1017.6
20260902192504 91 269 6.0 9.0 0.00 0.00 0.00 56 1017.7
20260902192004 90 257 6.0 9.0 0.00 0.00 0.00 56 1017.8
20260902191504 90 250 5.0 9.0 0.00 0.00 0.00 56 1017.6
20260902191003 90 242 7.0 11.0 0.00 0.00 0.00 59 1017.7
20260902190504 90 264 4.0 11.0 0.00 0.00 0.00 60 1017.8
20260902190004 90 298 8.0 10.0 0.00 0.00 0.00 57 1018.1
20260902185004 90 310 7.0 11.0 0.00 0.00 0.00 59 1017.9
20260902184505 90 298 6.0 11.0 0.00 0.00 0.00 58 1018.1
20260902184004 90 278 5.0 11.0 0.00 0.00 0.00 64 1017.9
20260902183503 90 277 5.0 11.0 0.00 0.00 0.00 62 1018.1
20260902182004 90 293 5.0 7.0 0.00 0.00 0.00 64 1018.2
20260902181504 90 313 6.0 11.0 0.00 0.00 0.00 64 1018.1
20260902181004 90 324 5.0 11.0 0.00 0.00 0.00 64 1018.2
20260902175503 90 289 7.0 9.0 0.00 0.00 0.00 64 1018.3
20260902175004 89 252 5.0 9.0 0.00 0.00 0.00 66 1018.3
20260902174504 89 277 4.0 9.0 0.00 0.00 0.00 66 1018.3
20260902174004 89 286 3.0 9.0 0.00 0.00 0.00 66 1018.4
20260902173503 89 273 5.0 10.0 0.00 0.00 0.00 66 1018.5
20260902173004 89 280 3.0 10.0 0.00 0.00 0.00 65 1018.5
20260902172504 89 265 4.0 5.0 0.00 0.00 0.00 65 1018.6
20260902172004 89 259 4.0 12.0 0.00 0.00 0.00 66 1018.4
20260902171503 89 329 4.0 12.0 0.00 0.00 0.00 65 1018.7
20260902171005 89 317 10.0 12.0 0.00 0.00 0.00 66 1018.8
20260902170504 88 305 5.0 8.0 0.00 0.00 0.00 65 1018.7
20260902165504 88 303 5.0 8.0 0.00 0.00 0.00 65 1018.7
20260902165003 88 297 5.0 7.0 0.00 0.00 0.00 66 1018.9
20260902164504 88 260 3.0 8.0 0.00 0.00 0.00 66 1018.8
20260902163503 88 251 5.0 10.0 0.00 0.00 0.00 65 1018.9
20260902163004 88 249 6.0 10.0 0.00 0.00 0.00 67 1018.8
20260902162504 88 276 6.0 9.0 0.00 0.00 0.00 67 1018.9
20260902162004 88 288 6.0 9.0 0.00 0.00 0.00 68 1019.1
20260902161503 88 332 5.0 9.0 0.00 0.00 0.00 69 1019.3
20260902161004 87 63 4.0 9.0 0.00 0.00 0.00 69 1019.3
20260902160504 87 61 7.0 9.0 0.00 0.00 0.00 68 1019.2
20260902160006 87 351 7.0 9.0 0.00 0.00 0.00 68 1019.2
20260902155504 87 1 3.0 7.0 0.00 0.00 0.00 68 1019.3
20260902155003 87 337 3.0 6.0 0.00 0.00 0.00 69 1019.1
20260902154504 87 303 1.0 7.0 0.00 0.00 0.00 69 1019.4
20260902153504 87 343 4.0 7.0 0.00 0.00 0.00 69 1019.5
20260902153005 87 323 4.0 6.0 0.00 0.00 0.00 69 1019.3
20260902152503 86 270 5.0 7.0 0.00 0.00 0.00 70 1019.4
20260902152004 86 279 4.0 7.0 0.00 0.00 0.00 69 1019.5
20260902151004 86 331 5.0 7.0 0.00 0.00 0.00 71 1019.3
20260902150505 86 21 3.0 7.0 0.00 0.00 0.00 72 1019.3
20260902150005 86 350 3.0 5.0 0.00 0.00 0.00 72 1019.3
20260902145504 85 318 3.0 6.0 0.00 0.00 0.00 71 1019.4
20260902145004 85 322 4.0 7.0 0.00 0.00 0.00 72 1019.4
20260902144503 85 323 3.0 7.0 0.00 0.00 0.00 71 1019.2
20260902144004 85 322 3.0 7.0 0.00 0.00 0.00 72 1019.4
20260902143504 84 327 3.0 7.0 0.00 0.00 0.00 72 1019.6
20260902143003 84 327 5.0 7.0 0.00 0.00 0.00 73 1019.3
20260902142504 84 346 3.0 6.0 0.00 0.00 0.00 74 1019.4
20260902142004 83 358 4.0 5.0 0.00 0.00 0.00 75 1019.3
20260902141504 83 307 2.0 5.0 0.00 0.00 0.00 75 1019.2
20260902141004 83 291 3.0 5.0 0.00 0.00 0.00 75 1019.2
20260902140504 82 268 3.0 5.0 0.00 0.00 0.00 76 1019.2
20260902140004 82 234 3.0 5.0 0.00 0.00 0.00 76 1019.3
20260902135504 81 255 4.0 5.0 0.00 0.00 0.00 79 1019.3
20260902135004 81 260 5.0 5.0 0.00 0.00 0.00 79 1019.2
20260902134505 80 91 3.0 5.0 0.00 0.00 0.00 79 1019.2
20260902134004 80 50 5.0 5.0 0.00 0.00 0.00 79 1019.3
20260902133504 79 32 2.0 5.0 0.00 0.00 0.00 79 1019.1
20260902132004 77 213 3.0 5.0 0.00 0.00 0.00 79 1019.2
20260902131503 77 221 2.0 5.0 0.00 0.00 0.00 79 1019.1
20260902130504 76 216 3.0 5.0 0.00 0.00 0.00 79 1019.2
20260902130004 76 217 1.0 5.0 0.00 0.00 0.00 79 1019.1
20260902125504 75 220 3.0 5.0 0.00 0.00 0.00 79 1019.1
20260902125004 74 223 2.0 3.0 0.00 0.00 0.00 78 1019.1
20260902124504 74 224 1.0 3.0 0.00 0.00 0.00 77 1019.1
20260902124005 74 239 1.0 3.0 0.00 0.00 0.00 77 1019.2
20260902123504 73 255 1.0 3.0 0.00 0.00 0.00 76 1019.1
20260902123004 73 236 1.0 1.0 0.00 0.00 0.00 75 1018.9
20260902122504 73 218 0.0 2.0 0.00 0.00 0.00 74 1019.1
20260902122003 73 226 1.0 2.0 0.00 0.00 0.00 72 1019.0
20260902121505 72 252 0.0 1.0 0.00 0.00 0.00 71 1018.9
20260902121004 72 298 0.0 1.0 0.00 0.00 0.00 73 1019.0
20260902120506 73 0 0.0 0.0 0.00 0.00 0.00 74 1018.8
20260902120005 73 0 0.0 0.0 0.00 0.00 0.00 74 1018.9
20260902115504 73 0 0.0 0.0 0.00 0.00 0.00 74 1018.9
20260902115006 73 0 0.0 0.0 0.00 0.00 0.00 74 1018.9
20260902114504 73 0 0.0 0.0 0.00 0.00 0.00 74 1018.7
20260902114005 73 0 0.0 0.0 0.00 0.00 0.00 74 1018.5
20260902113503 73 0 0.0 0.0 0.00 0.00 0.00 74 1018.7
20260902113004 73 0 0.0 0.0 0.00 0.00 0.00 74 1018.6
20260902112504 73 0 0.0 0.0 0.00 0.00 0.00 74 1018.8
20260902112003 73 0 0.0 0.0 0.00 0.00 0.00 74 1018.4
20260902111504 73 0 0.0 0.0 0.00 0.00 0.00 74 1018.3
20260902111004 73 0 0.0 0.0 0.00 0.00 0.00 74 1018.3
20260902110504 73 0 0.0 0.0 0.00 0.00 0.00 74 1018.2
20260902110007 73 0 0.0 0.0 0.00 0.00 0.00 74 1018.4
20260902105504 73 14 0.0 1.0 0.00 0.00 0.00 74 1018.4
20260902105005 73 14 0.0 1.0 0.00 0.00 0.00 74 1018.5
20260902104504 73 359 0.0 1.0 0.00 0.00 0.00 74 1018.6
20260902104003 73 5 0.0 1.0 0.00 0.00 0.00 74 1018.3
20260902103504 73 15 0.0 1.0 0.00 0.00 0.00 74 1018.3
20260902103004 73 0 0.0 0.0 0.00 0.00 0.00 74 1018.4
20260902102504 73 0 0.0 0.0 0.00 0.00 0.00 74 1018.2
20260902102004 73 0 0.0 0.0 0.00 0.00 0.00 73 1018.2
20260902101504 73 0 0.0 0.0 0.00 0.00 0.00 73 1018.1
20260902101003 73 0 0.0 0.0 0.00 0.00 0.00 73 1018.2
20260902100504 74 0 0.0 0.0 0.00 0.00 0.00 73 1018.3
20260902100005 74 0 0.0 0.0 0.00 0.00 0.00 73 1018.0
20260902095504 74 0 0.0 0.0 0.00 0.00 0.00 73 1018.2
20260902095005 74 0 0.0 0.0 0.00 0.00 0.00 73 1018.2
20260902094503 74 0 0.0 0.0 0.00 0.00 0.00 73 1018.1
20260902094004 74 0 0.0 0.0 0.00 0.00 0.00 73 1018.0
20260902093504 74 261 0.0 1.0 0.00 0.00 0.00 73 1018.3
20260902092504 74 261 0.0 1.0 0.00 0.00 0.00 73 1018.2
20260902091505 74 241 0.0 1.0 0.00 0.00 0.00 73 1018.2
20260902091004 74 217 0.0 1.0 0.00 0.00 0.00 73 1018.0
20260902090504 74 261 0.0 1.0 0.00 0.00 0.00 73 1018.1
20260902085503 74 0 0.0 0.0 0.00 0.00 0.00 73 1018.1
20260902085004 74 0 0.0 0.0 0.00 0.00 0.00 73 1018.0
20260902084504 75 0 0.0 0.0 0.00 0.00 0.00 73 1017.9
20260902084003 75 0 0.0 0.0 0.00 0.00 0.00 73 1018.1
20260902083503 75 0 0.0 0.0 0.00 0.00 0.00 73 1018.0
20260902083004 75 261 0.0 1.0 0.00 0.00 0.00 73 1017.7
20260902082505 75 261 0.0 1.0 0.00 0.00 0.00 73 1017.7
20260902081504 75 228 0.0 1.0 0.00 0.00 0.00 72 1017.8
20260902081004 75 217 0.0 1.0 0.00 0.00 0.00 72 1017.5
20260902080505 75 0 0.0 0.0 0.00 0.00 0.00 72 1017.8
20260902080004 75 0 0.0 0.0 0.00 0.00 0.00 72 1017.6
20260902075505 75 0 0.0 0.0 0.00 0.00 0.00 72 1017.5
20260902075004 76 0 0.0 0.0 0.00 0.00 0.00 72 1017.7
20260902074504 76 0 0.0 0.0 0.00 0.00 0.00 72 1017.6
20260902074004 76 0 0.0 0.0 0.00 0.00 0.00 72 1017.6
20260902073503 76 0 0.0 0.0 0.00 0.00 0.00 72 1017.6
20260902073004 76 261 0.0 1.0 0.00 0.00 0.00 72 1017.7
20260902072504 76 261 0.0 1.0 0.00 0.00 0.00 72 1017.6
20260902072004 76 0 0.0 0.0 0.00 0.00 0.00 71 1017.6
20260902071504 76 0 0.0 0.0 0.00 0.00 0.00 71 1017.5
20260902071003 76 0 0.0 0.0 0.00 0.00 0.00 71 1017.6
20260902070505 76 0 0.0 0.0 0.00 0.00 0.00 71 1017.5
20260902070006 76 0 0.0 0.0 0.00 0.00 0.00 71 1017.4
20260902065504 76 0 0.0 0.0 0.00 0.00 0.00 71 1017.6
20260902065004 76 0 0.0 0.0 0.00 0.00 0.00 71 1017.5
20260902064004 77 0 0.0 0.0 0.00 0.00 0.00 71 1017.6
20260902063504 77 0 0.0 0.0 0.00 0.00 0.00 71 1017.5
20260902063005 77 261 0.0 1.0 0.00 0.00 0.00 71 1017.5
20260902062503 77 261 0.0 1.0 0.00 0.00 0.00 71 1017.3
20260902062003 77 278 0.0 1.0 0.00 0.00 0.00 71 1017.4
20260902060504 77 242 0.0 1.0 0.00 0.00 0.00 71 1017.6
20260902060004 77 242 0.0 1.0 0.00 0.00 0.00 71 1017.5
20260902055504 77 244 0.0 1.0 0.00 0.00 0.00 70 1017.5
20260902055003 78 251 0.0 1.0 0.00 0.00 0.00 70 1017.5
20260902054004 78 250 0.0 1.0 0.00 0.00 0.00 70 1017.5
20260902053004 78 269 0.0 1.0 0.00 0.00 0.00 70 1017.5
20260902052503 78 243 0.0 1.0 0.00 0.00 0.00 70 1017.6
20260902051504 78 261 0.0 1.0 0.00 0.00 0.00 70 1017.6
20260902051004 78 261 0.0 1.0 0.00 0.00 0.00 70 1017.6
20260902050504 78 0 0.0 0.0 0.00 0.00 0.00 70 1017.5
20260902050007 79 0 0.0 0.0 0.00 0.00 0.00 69 1017.5
20260902045004 79 0 0.0 0.0 0.00 0.00 0.00 69 1017.7
20260902044504 79 261 0.0 1.0 0.00 0.00 0.00 69 1017.8
20260902044005 79 237 0.0 1.0 0.00 0.00 0.00 69 1017.7
20260902043503 79 232 0.0 1.0 0.00 0.00 0.00 69 1017.7
20260902043004 79 233 1.0 1.0 0.00 0.00 0.00 69 1017.6
20260902042504 80 261 0.0 1.0 0.00 0.00 0.00 69 1017.8
20260902042005 80 261 0.0 1.0 0.00 0.00 0.00 69 1017.6
20260902041505 80 269 0.0 1.0 0.00 0.00 0.00 69 1017.7
20260902040504 80 261 0.0 1.0 0.00 0.00 0.00 68 1017.8
20260902035504 80 261 0.0 1.0 0.00 0.00 0.00 68 1017.6
20260902035004 80 261 0.0 1.0 0.00 0.00 0.00 68 1017.8
20260902034504 81 261 0.0 1.0 0.00 0.00 0.00 68 1017.5